Weather History for KMUI - January, 2013

Change the Weather History Date:

Thursday, January 31, 2013

  Actual Average Record
Temperature  
Mean Temperature 40 °F -  
Max Temperature 53 °F 36 °F 57 °F (2012)
Min Temperature 26 °F 24 °F 10 °F (2011)
Degree Days  
Heating Degree Days 26    
Moisture  
Dew Point 33 °F    
Average Humidity 73    
Maximum Humidity 100    
Minimum Humidity 41    
Precipitation  
Precipitation 0.84 in - - ()
Sea Level Pressure  
Sea Level Pressure 29.41 in    
Wind  
Wind Speed 11 mph (West)    
Max Wind Speed 30 mph    
Max Gust Speed 44 mph    
Visibility 8 miles    
Events Rain , Snow    
Averages and records for this station are not official NWS values.
T = Trace of Precipitation, MM = Missing Value Source: NWS Daily Summary

Daily Weather History Graph

Daily Weather History Graph

Search for Another Location

Airport or City:

Trip Planner

Search our weather history database for the weather conditions in past years. The results will help you decide how hot, cold, wet, or windy it might be!

Date:

Astronomy

Jan. 31, 2013 Rise Set
Actual Time 7:16 AM EST 5:23 PM EST
Civil Twilight 6:47 AM EST 5:52 PM EST
Nautical Twilight 6:14 AM EST 6:25 PM EST
Astronomical Twilight 5:42 AM EST 6:57 PM EST
Moon 10:24 PM EST (1/31) 9:13 AM EST (1/31)
Length of Visible Light 11h 04m
Length of Day
10h 07m
Waning Gibbous, 80% of the Moon is Illuminated
Jan 31
Waning Gibbous
Feb 3
Last Quarter
Feb 10
New
Feb 17
First Quarter
Feb 25
Full

Hourly Weather History & Observations

Time (EST) Temp. Windchill Dew Point Humidity Pressure Visibility Wind Dir Wind Speed Gust Speed Precip Events Conditions
12:02 AM 51.8 °F - 51.8 °F 100% 29.26 in 0.8 mi NNE 6.9 mph - N/A Rain Rain
12:07 AM 51.8 °F - 51.8 °F 100% 29.25 in 1.0 mi NNE 6.9 mph - N/A Rain Rain
12:10 AM 51.8 °F - 51.8 °F 100% 29.25 in 1.2 mi NNE 5.8 mph - N/A Rain Rain
12:11 AM 51.8 °F - 51.8 °F 100% 29.25 in 1.5 mi NNE 5.8 mph - N/A Rain Rain
12:13 AM 51.8 °F - 51.8 °F 100% 29.25 in 1.8 mi NNE 5.8 mph - N/A Rain Rain
12:14 AM 51.8 °F - 51.8 °F 100% 29.25 in 2.0 mi NNE 4.6 mph - N/A Rain Rain
12:19 AM 51.8 °F - 51.8 °F 100% 29.25 in 3.0 mi NE 4.6 mph - N/A Rain Rain
12:31 AM 51.8 °F - 51.8 °F 100% 29.23 in 2.5 mi NE 4.6 mph - N/A Rain Rain
12:51 AM 51.8 °F - 51.8 °F 100% 29.19 in 2.5 mi NNE 4.6 mph - N/A Rain Rain
12:53 AM 51.8 °F - 51.8 °F 100% 29.20 in 3.0 mi NE 3.5 mph - N/A Rain Rain
12:55 AM 52.3 °F - 52.2 °F 99% 29.20 in 3.0 mi NE 4.6 mph - 0.26 in Rain Light Rain
12:58 AM 51.8 °F - 51.8 °F 100% 29.19 in 2.5 mi NE 4.6 mph - N/A Rain Heavy Rain
1:01 AM 51.8 °F - 51.8 °F 100% 29.20 in 2.0 mi ENE 3.5 mph - N/A Rain Heavy Rain
1:05 AM 51.8 °F - 51.8 °F 100% 29.17 in 1.8 mi NNE 4.6 mph - N/A Rain Heavy Rain
1:08 AM 51.8 °F - 51.8 °F 100% 29.17 in 1.5 mi NNE 3.5 mph - N/A Rain Heavy Rain
1:16 AM 51.8 °F - 51.8 °F 100% 29.16 in 1.8 mi NE 4.6 mph - N/A Rain Rain
1:19 AM 51.8 °F - 51.8 °F 100% 29.16 in 1.8 mi NNE 3.5 mph - N/A Rain Rain
1:22 AM 51.8 °F - 51.8 °F 100% 29.16 in 2.0 mi NNE 3.5 mph - N/A Rain Rain
1:31 AM 53.6 °F - 53.6 °F 100% 29.18 in 3.0 mi Calm Calm - N/A Rain Rain
1:33 AM 53.6 °F - 53.6 °F 100% 29.17 in 2.5 mi Calm Calm - N/A Rain Rain
1:41 AM 53.6 °F - 53.6 °F 100% 29.15 in 1.8 mi Calm Calm - N/A Rain Heavy Rain
1:44 AM 53.6 °F - 53.6 °F 100% 29.15 in 1.8 mi NW 3.5 mph - N/A Rain Heavy Rain
1:48 AM 53.6 °F - 53.6 °F 100% 29.14 in 2.0 mi Calm Calm - N/A Rain Rain
1:55 AM 52.7 °F - 52.7 °F 100% 29.14 in 2.5 mi North 3.5 mph - 0.35 in Rain Light Rain
2:00 AM 53.6 °F - 53.6 °F 100% 29.14 in 3.0 mi Calm Calm - N/A Rain Light Rain
2:16 AM 53.6 °F - 53.6 °F 100% 29.17 in 2.5 mi West 6.9 mph - N/A Rain Heavy Rain
2:22 AM 53.6 °F - 53.6 °F 100% 29.18 in 3.0 mi SW 8.1 mph - N/A Rain Rain
2:55 AM 52.9 °F - 52.9 °F 100% 29.14 in 10.0 mi SW 6.9 mph - 0.14 in Rain Light Rain
3:23 AM 51.8 °F - 51.8 °F 100% 29.13 in 10.0 mi South 6.9 mph - N/A Rain Light Rain
3:30 AM 51.8 °F - 51.8 °F 100% 29.13 in 10.0 mi South 5.8 mph - N/A Rain Light Rain
3:31 AM 51.8 °F - 51.8 °F 100% 29.13 in 10.0 mi South 5.8 mph - N/A   Mostly Cloudy
3:34 AM 51.8 °F - 51.8 °F 100% 29.13 in 10.0 mi SW 5.8 mph - N/A Rain Light Rain
3:35 AM 51.8 °F - 51.8 °F 100% 29.12 in 10.0 mi SW 4.6 mph - N/A Rain Light Rain
3:37 AM 51.8 °F - 51.8 °F 100% 29.11 in 10.0 mi WSW 3.5 mph - N/A Rain Light Rain
3:55 AM 52.3 °F - 52.3 °F 100% 29.14 in 10.0 mi SW 8.1 mph - 0.02 in Rain Light Rain
4:05 AM 51.8 °F - 51.8 °F 100% 29.16 in 4.0 mi WSW 19.6 mph 29.9 mph N/A Rain Heavy Rain
4:13 AM 51.8 °F - 51.8 °F 100% 29.15 in 6.0 mi West 17.3 mph 29.9 mph N/A Rain Light Rain
4:15 AM 51.8 °F - 51.8 °F 100% 29.15 in 8.0 mi West 17.3 mph 29.9 mph N/A Rain Light Rain
4:17 AM 51.8 °F - 51.8 °F 100% 29.15 in 10.0 mi West 24.2 mph 29.9 mph N/A Rain Light Rain
4:21 AM 51.8 °F - 51.8 °F 100% 29.15 in 10.0 mi West 16.1 mph 31.1 mph N/A   Light Drizzle
4:54 AM 44.6 °F 36.6 °F 44.6 °F 100% 29.21 in 10.0 mi West 19.6 mph 33.4 mph N/A   Mostly Cloudy
4:55 AM 44.6 °F 36.9 °F 44.1 °F 98% 29.21 in 10.0 mi West 18.4 mph 33.4 mph 0.06 in   Mostly Cloudy
5:55 AM 44.2 °F 36.4 °F 33.6 °F 66% 29.28 in 10.0 mi West 18.4 mph 32.2 mph N/A   Overcast
6:01 AM 44.6 °F 36.1 °F 32.0 °F 61% 29.29 in 10.0 mi West 21.9 mph 36.8 mph N/A   Overcast
6:04 AM 44.6 °F 38.1 °F 32.0 °F 61% 29.30 in 10.0 mi West 13.8 mph 36.8 mph N/A   Overcast
6:06 AM 44.6 °F 35.7 °F 32.0 °F 61% 29.29 in 10.0 mi WSW 24.2 mph 36.8 mph N/A   Overcast
6:30 AM 42.8 °F 34.8 °F 30.2 °F 61% 29.33 in 10.0 mi WSW 17.3 mph 35.7 mph N/A   Overcast
6:31 AM 42.8 °F 33.1 °F 30.2 °F 61% 29.33 in 10.0 mi WSW 25.3 mph 36.8 mph N/A   Overcast
6:42 AM 41.0 °F 31.1 °F 30.2 °F 65% 29.35 in 10.0 mi WSW 23.0 mph 33.4 mph N/A   Overcast
6:55 AM 41.4 °F 35.2 °F 29.7 °F 63% 29.37 in 10.0 mi West 10.4 mph 25.3 mph 0.00 in   Overcast
7:04 AM 41.0 °F 31.1 °F 30.2 °F 65% 29.37 in 10.0 mi West 23.0 mph 34.5 mph N/A   Light Drizzle
7:13 AM 41.0 °F 32.5 °F 28.4 °F 61% 29.39 in 10.0 mi West 17.3 mph 34.5 mph N/A   Overcast
7:18 AM 41.0 °F 30.9 °F 28.4 °F 61% 29.39 in 10.0 mi West 24.2 mph 31.1 mph N/A   Light Drizzle
7:36 AM 39.2 °F 29.8 °F 28.4 °F 65% 29.41 in 10.0 mi West 18.4 mph 28.8 mph N/A   Overcast
7:37 AM 39.2 °F 28.7 °F 28.4 °F 65% 29.41 in 10.0 mi West 23.0 mph 32.2 mph N/A   Light Drizzle
7:49 AM 39.2 °F 29.8 °F 28.4 °F 65% 29.42 in 10.0 mi West 18.4 mph 31.1 mph N/A   Overcast
7:55 AM 38.8 °F 29.7 °F 28.0 °F 65% 29.43 in 10.0 mi West 17.3 mph 27.6 mph 0.00 in   Overcast
8:09 AM 39.2 °F 30.2 °F 26.6 °F 61% 29.44 in 10.0 mi WSW 17.3 mph 25.3 mph N/A   Light Drizzle
8:30 AM 39.2 °F 30.2 °F 26.6 °F 61% 29.46 in 10.0 mi West 17.3 mph 28.8 mph N/A   Overcast
8:33 AM 39.2 °F 29.8 °F 26.6 °F 61% 29.46 in 10.0 mi West 18.4 mph 28.8 mph N/A Rain Light Rain
8:48 AM 39.2 °F 31.2 °F 24.8 °F 56% 29.47 in 10.0 mi West 13.8 mph 29.9 mph N/A   Overcast
8:55 AM 38.3 °F 29.3 °F 25.2 °F 59% 29.47 in 10.0 mi West 16.1 mph 26.5 mph 0.00 in   Overcast
9:00 AM 37.4 °F 26.4 °F 24.8 °F 60% 29.47 in 10.0 mi West 23.0 mph 34.5 mph N/A Rain Light Rain
9:25 AM 39.2 °F 29.8 °F 24.8 °F 56% 29.48 in 10.0 mi West 18.4 mph 31.1 mph N/A   Scattered Clouds
9:28 AM 39.2 °F 28.5 °F 23.0 °F 52% 29.48 in 10.0 mi WSW 24.2 mph 33.4 mph N/A Rain Light Rain
9:49 AM 39.2 °F 27.8 °F 24.8 °F 56% 29.49 in 10.0 mi West 27.6 mph 41.4 mph N/A   Mostly Cloudy
9:55 AM 38.5 °F 26.9 °F 24.1 °F 56% 29.49 in 10.0 mi West 27.6 mph 36.8 mph 0.00 in   Mostly Cloudy
10:55 AM 39.0 °F 29.0 °F 19.9 °F 46% 29.54 in 10.0 mi West 20.7 mph 35.7 mph N/A   Partly Cloudy
11:09 AM 37.4 °F 26.6 °F 19.4 °F 48% 29.55 in 10.0 mi West 21.9 mph 32.2 mph N/A Snow Light Snow
11:23 AM 39.2 °F 29.6 °F 19.4 °F 45% 29.55 in 10.0 mi West 19.6 mph 35.7 mph N/A   Clear
11:55 AM 39.7 °F 29.5 °F 17.4 °F 41% 29.56 in 10.0 mi West 23.0 mph 43.7 mph 0.01 in   Partly Cloudy
12:32 PM 37.4 °F 26.4 °F 19.4 °F 48% 29.58 in 10.0 mi WSW 23.0 mph 29.9 mph N/A Snow Light Snow
12:51 PM 37.4 °F 25.2 °F 17.6 °F 45% 29.59 in 10.0 mi WSW 28.8 mph 35.7 mph N/A   Mostly Cloudy
12:54 PM 37.4 °F 25.6 °F 19.4 °F 48% 29.60 in 10.0 mi WSW 26.5 mph 36.8 mph N/A Snow Light Snow
12:55 PM 37.8 °F 26.3 °F 18.7 °F 46% 29.60 in 10.0 mi WSW 25.3 mph 36.8 mph 0.00 in Snow Light Snow
1:31 PM 37.4 °F 27.8 °F 17.6 °F 45% 29.60 in 10.0 mi West 17.3 mph 26.5 mph N/A   Scattered Clouds
1:37 PM 37.4 °F 25.9 °F 17.6 °F 45% 29.60 in 10.0 mi West 25.3 mph 35.7 mph N/A Snow Light Snow
1:55 PM 35.6 °F 22.5 °F 20.8 °F 55% 29.62 in 8.0 mi WSW 29.9 mph 39.1 mph 0.00 in Snow Light Snow
2:51 PM 33.8 °F 22.8 °F 12.2 °F 41% 29.65 in 10.0 mi West 18.4 mph 28.8 mph N/A   Mostly Cloudy
2:55 PM 34.2 °F 23.6 °F 13.1 °F 42% 29.66 in 10.0 mi West 17.3 mph 28.8 mph 0.00 in   Scattered Clouds
3:01 PM 33.8 °F 22.2 °F 14.0 °F 44% 29.66 in 10.0 mi West 20.7 mph 29.9 mph N/A Snow Light Snow
3:03 PM 33.8 °F 24.3 °F 14.0 °F 44% 29.66 in 10.0 mi West 13.8 mph 29.9 mph N/A   Scattered Clouds
3:06 PM 33.8 °F 22.2 °F 14.0 °F 44% 29.66 in 10.0 mi West 20.7 mph 29.9 mph N/A Snow Light Snow
3:17 PM 33.8 °F 23.2 °F 14.0 °F 44% 29.67 in 10.0 mi West 17.3 mph 27.6 mph N/A   Mostly Cloudy
3:18 PM 33.8 °F 22.5 °F 14.0 °F 44% 29.67 in 10.0 mi West 19.6 mph 27.6 mph N/A Rain Light Rain
3:55 PM 33.4 °F 22.3 °F 14.2 °F 45% 29.69 in 10.0 mi WSW 18.4 mph 28.8 mph 0.00 in Snow Light Snow
4:18 PM 32.0 °F 19.8 °F 17.6 °F 55% 29.70 in 10.0 mi WSW 20.7 mph 26.5 mph N/A   Mostly Cloudy
4:55 PM 32.4 °F 20.3 °F 16.0 °F 51% 29.71 in 10.0 mi West 20.7 mph 28.8 mph 0.00 in   Mostly Cloudy
4:58 PM 32.0 °F 19.8 °F 15.8 °F 51% 29.71 in 10.0 mi WSW 20.7 mph 28.8 mph N/A Snow Light Snow
5:55 PM 29.5 °F 18.8 °F 22.6 °F 76% 29.76 in 4.0 mi West 13.8 mph 27.6 mph 0.00 in Snow Light Snow
6:06 PM 30.2 °F 21.3 °F 19.4 °F 64% 29.77 in 10.0 mi West 10.4 mph 18.4 mph N/A   Mostly Cloudy
6:40 PM 30.2 °F 18.5 °F 12.2 °F 47% 29.79 in 10.0 mi West 17.3 mph 27.6 mph N/A   Scattered Clouds
6:55 PM 30.0 °F 19.5 °F 11.8 °F 47% 29.80 in 10.0 mi West 13.8 mph 25.3 mph 0.00 in   Mostly Cloudy
6:57 PM 30.2 °F 18.1 °F 12.2 °F 47% 29.81 in 10.0 mi West 18.4 mph 31.1 mph N/A   Scattered Clouds
6:58 PM 30.2 °F 17.1 °F 12.2 °F 47% 29.81 in 10.0 mi WNW 21.9 mph 31.1 mph N/A   Scattered Clouds
7:08 PM 30.2 °F 18.9 °F 12.2 °F 47% 29.82 in 10.0 mi WNW 16.1 mph 27.6 mph N/A   Mostly Cloudy
7:14 PM 28.4 °F 15.4 °F 15.8 °F 59% 29.83 in 10.0 mi West 19.6 mph 31.1 mph N/A   Mostly Cloudy
7:45 PM 26.6 °F 16.2 °F 15.8 °F 64% 29.84 in 10.0 mi West 11.5 mph 21.9 mph N/A   Scattered Clouds
7:55 PM 27.3 °F 16.1 °F 14.5 °F 59% 29.84 in 10.0 mi WSW 13.8 mph 20.7 mph 0.00 in   Scattered Clouds
8:55 PM 27.9 °F 17.8 °F 10.4 °F 48% 29.84 in 10.0 mi West 11.5 mph 24.2 mph N/A   Mostly Cloudy
9:55 PM 28.4 °F 18.0 °F 9.1 °F 44% 29.83 in 10.0 mi WSW 12.7 mph - N/A   Overcast
10:55 PM 27.5 °F 19.3 °F 11.5 °F 51% 29.84 in 10.0 mi SW 8.1 mph - N/A   Overcast
11:55 PM 27.3 °F 17.7 °F 11.5 °F 51% 29.84 in 10.0 mi WSW 10.4 mph - N/A   Mostly Cloudy